FENGYUN 1C DEB, 30443

Orbit data source: Space-Track

FENGYUN 1C DEB, 30443 is space debris in SSO originally from a launch on Mon, 10 May 1999 UTC launched from the Taiyaun Space Center, China (TSC). Fengyun 1C debris stems from the Chinese weather satellite Fengyun-1C, which was intentionally destroyed by a Chinese anti-satellite missile in 2007. This event dramatically increased the amount of space debris, with thousands of trackable fragments posing hazards to satellites and human spaceflight. The Fengyun 1C debris cloud has become a focal point in discussions about space sustainability and the need for international regulations to prevent the creation of new debris.

Loading next visibility...
Identifier
30443, 1999-025AFE
Orbit
SSO
Country
Flag of CNCN / PRC
Related business
Manufacturer
Unknown
Mission
Spacecraft
Bus & Motor
Unknown
Mass
Unknown
Launch date (UTC)
1999-05-10 (27 years ago)
Launch vehicle
Unknown
Launch site
Taiyaun Space Center, China (TSC)
Object type
Payload
Rocket body
Debris
Shape & HBR
Unknown shape, 0.1 m
Radar Cross Section
Small (<0.1 m²)

Expand to show TLE details & history
Last TLE update: 9 hours ago

TLE from 9 hours ago
0 FENGYUN 1C DEB
1 30443U 99025AFE 26120.40953536  .00005696  00000-0  18618-2 0  9997
2 30443  98.8566  76.6542 0024252 290.2633  69.5946 14.38764615994262
Epoch: 2026-04-30T09:49Z
TLE epoch observation values (Epoch: 2026-04-30T09:49:43.855Z)
Latitude
-0.00005°
Longitude
70.86493°
Altitude
759.516 km
Speed
7.478 km/s
True Right ascension
05h 06m 37s
True Declination
0° 00' 00"
Sunlit
Object was in daylight at epoch
Visualization orbit readout
Latitude
Unknown
Longitude
Unknown
Altitude
Unknown
Speed
Unknown
Apparent Right ascension
Unknown
Apparent Declination
Unknown
Sunlit
N/A
Visualization observer readout
Local Sidereal Time
02:40:52
Azimuth
Unknown
Elevation
Unknown
Doppler factor
Unknown
Orbital elements
Apogee altitude
777.035 km
Perigee altitude
742.413 km
Semi-major axis
7,137.861 km
Eccentricity
0.00243
Inclination
98.8566°
RAAN
76.6542°
Arg. of periapsis
290.2633°
True anomaly
69.85534°
Mean anomaly
69.5946°
Eccentric anomaly
69.72494°
Mean motion
3.59908 °/min
Orbital period
100.03 mins
BSTAR
0.0018618
Loading maneuver chart data...
Computing Atmospheric mass density...

Documentation

Showing up to 5 results
|